Change the Weather History Date:

Thursday, December 6, 2012

  Actual Average Record
Temperature  
Mean Temperature 40 °F -  
Max Temperature 51 °F 28 °F 52 °F (1963)
Min Temperature 26 °F 10 °F -17 °F (1972)
Degree Days  
Heating Degree Days 26    
Moisture  
Dew Point 25 °F    
Average Humidity 53    
Maximum Humidity 69    
Minimum Humidity 33    
Precipitation  
Precipitation 0.00 in - - ()
Sea Level Pressure  
Sea Level Pressure 29.88 in    
Wind  
Wind Speed 17 mph (NW)    
Max Wind Speed 28 mph    
Max Gust Speed 36 mph    
Visibility 10 miles    
Events      
Averages and records for this station are not official NWS values.
T = Trace of Precipitation, MM = Missing Value Source: NWS Daily Summary

Daily Weather History Graph

Daily Weather History Graph

Search for Another Location

Airport or City:

Trip Planner

Search our weather history database for the weather conditions in past years. The results will help you decide how hot, cold, wet, or windy it might be!

Date:

Astronomy

Dec. 06, 2012 Rise Set
Actual Time 7:45 AM CST 4:43 PM CST
Civil Twilight 7:12 AM CST 5:16 PM CST
Nautical Twilight 6:35 AM CST 5:53 PM CST
Astronomical Twilight 6:00 AM CST 6:28 PM CST
Moon No Moon Rise 12:24 PM CST (12/6)
Length of Visible Light 10h 04m
Length of Day
8h 58m
Waning Gibbous, 49% of the Moon is Illuminated
Dec 6
Waning Gibbous
Dec 13
New
Dec 19
First Quarter
Dec 28
Full
Jan 4
Last Quarter

Hourly Weather History & Observations

Time (CST) Temp. Windchill Dew Point Humidity Pressure Visibility Wind Dir Wind Speed Gust Speed Precip Events Conditions
12:15 AM 51.8 °F - 24.8 °F 35% 29.68 in 10.0 mi SSW 27.6 mph 35.7 mph N/A   Overcast
12:35 AM 51.8 °F - 24.8 °F 35% 29.68 in 10.0 mi SSW 26.5 mph 35.7 mph N/A   Overcast
12:55 AM 51.8 °F - 24.8 °F 35% 29.69 in 10.0 mi SSW 21.9 mph 26.5 mph N/A   Overcast
1:15 AM 51.8 °F - 24.8 °F 35% 29.69 in 10.0 mi SSW 21.9 mph 26.5 mph N/A   Overcast
1:35 AM 51.8 °F - 24.8 °F 35% 29.69 in 10.0 mi SSW 19.6 mph 28.8 mph N/A   Overcast
1:55 AM 51.8 °F - 24.8 °F 35% 29.70 in 10.0 mi SW 16.1 mph 24.2 mph N/A   Scattered Clouds
2:15 AM 51.8 °F - 24.8 °F 35% 29.70 in 10.0 mi SW 20.7 mph - N/A   Scattered Clouds
2:35 AM 51.8 °F - 24.8 °F 35% 29.71 in 10.0 mi SW 16.1 mph - N/A   Mostly Cloudy
2:55 AM 51.8 °F - 23.0 °F 33% 29.73 in 10.0 mi WSW 19.6 mph 23.0 mph N/A   Mostly Cloudy
3:15 AM 50.0 °F - 23.0 °F 35% 29.73 in 10.0 mi WSW 16.1 mph 19.6 mph N/A   Mostly Cloudy
3:35 AM 50.0 °F - 23.0 °F 35% 29.74 in 10.0 mi WSW 15.0 mph - N/A   Mostly Cloudy
3:55 AM 48.2 °F - 24.8 °F 40% 29.75 in 10.0 mi WNW 12.7 mph - N/A   Mostly Cloudy
4:15 AM 48.2 °F - 28.4 °F 46% 29.76 in 10.0 mi WNW 15.0 mph - N/A   Mostly Cloudy
4:35 AM 46.4 °F 40.4 °F 32.0 °F 57% 29.77 in 10.0 mi WNW 13.8 mph - N/A   Mostly Cloudy
4:55 AM 44.6 °F 39.7 °F 33.8 °F 66% 29.77 in 10.0 mi WNW 9.2 mph - N/A   Mostly Cloudy
5:15 AM 44.6 °F 39.2 °F 33.8 °F 66% 29.78 in 10.0 mi NW 10.4 mph - N/A   Mostly Cloudy
5:35 AM 44.6 °F 38.4 °F 30.2 °F 57% 29.78 in 10.0 mi NW 12.7 mph - N/A   Partly Cloudy
5:55 AM 42.8 °F 36.6 °F 30.2 °F 61% 29.79 in 10.0 mi NW 11.5 mph - N/A   Clear
6:15 AM 42.8 °F 37.5 °F 30.2 °F 61% 29.80 in 10.0 mi NW 9.2 mph - N/A   Clear
6:35 AM 42.8 °F 36.2 °F 28.4 °F 57% 29.82 in 10.0 mi NW 12.7 mph - N/A   Partly Cloudy
6:55 AM 42.8 °F 34.8 °F 28.4 °F 57% 29.83 in 10.0 mi NW 17.3 mph - N/A   Clear
7:15 AM 42.8 °F 33.8 °F 26.6 °F 53% 29.84 in 10.0 mi NW 21.9 mph 26.5 mph N/A   Clear
7:35 AM 42.8 °F 35.1 °F 26.6 °F 53% 29.85 in 10.0 mi NW 16.1 mph - N/A   Scattered Clouds
7:55 AM 39.2 °F 30.5 °F 24.8 °F 56% 29.86 in 10.0 mi NW 16.1 mph - N/A   Partly Cloudy
8:15 AM 39.2 °F 29.8 °F 26.6 °F 61% 29.86 in 10.0 mi NW 18.4 mph - N/A   Clear
8:35 AM 39.2 °F 30.8 °F 26.6 °F 61% 29.88 in 10.0 mi NW 15.0 mph - N/A   Clear
9:15 AM 39.2 °F 32.5 °F 26.6 °F 61% 29.89 in 10.0 mi WNW 10.4 mph - N/A   Clear
9:35 AM 41.0 °F 33.1 °F 26.6 °F 57% 29.89 in 10.0 mi NW 15.0 mph - N/A   Clear
9:55 AM 42.8 °F 35.8 °F 28.4 °F 57% 29.89 in 10.0 mi NNW 13.8 mph 24.2 mph N/A   Clear
10:15 AM 42.8 °F 34.3 °F 28.4 °F 57% 29.90 in 10.0 mi NW 19.6 mph 25.3 mph N/A   Clear
10:35 AM 42.8 °F 34.3 °F 28.4 °F 57% 29.90 in 10.0 mi NNW 19.6 mph 28.8 mph N/A   Clear
10:55 AM 44.6 °F 36.6 °F 28.4 °F 53% 29.89 in 10.0 mi NNW 19.6 mph - N/A   Clear
11:15 AM 44.6 °F 36.6 °F 28.4 °F 53% 29.90 in 10.0 mi NNW 19.6 mph - N/A   Clear
11:35 AM 44.6 °F 37.2 °F 28.4 °F 53% 29.90 in 10.0 mi NNW 17.3 mph 24.2 mph N/A   Clear
11:55 AM 44.6 °F 37.4 °F 26.6 °F 49% 29.90 in 10.0 mi NW 16.1 mph 24.2 mph N/A   Clear
12:15 PM 44.6 °F 37.2 °F 28.4 °F 53% 29.90 in 10.0 mi NW 17.3 mph 21.9 mph N/A   Partly Cloudy
12:35 PM 44.6 °F 38.1 °F 28.4 °F 53% 29.90 in 10.0 mi NNW 13.8 mph 18.4 mph N/A   Scattered Clouds
12:55 PM 44.6 °F 38.1 °F 26.6 °F 49% 29.90 in 10.0 mi NW 13.8 mph 19.6 mph N/A   Partly Cloudy
1:15 PM 44.6 °F 37.8 °F 28.4 °F 53% 29.90 in 10.0 mi NW 15.0 mph - N/A   Clear
1:35 PM 44.6 °F 37.4 °F 28.4 °F 53% 29.90 in 10.0 mi NW 16.1 mph - N/A   Clear
1:55 PM 44.6 °F 38.4 °F 26.6 °F 49% 29.90 in 10.0 mi NW 12.7 mph 17.3 mph N/A   Partly Cloudy
2:15 PM 44.6 °F 38.1 °F 26.6 °F 49% 29.90 in 10.0 mi WNW 13.8 mph 17.3 mph N/A   Mostly Cloudy
2:35 PM 44.6 °F 37.4 °F 26.6 °F 49% 29.91 in 10.0 mi NW 16.1 mph 20.7 mph N/A   Overcast
2:55 PM 44.6 °F 37.4 °F 26.6 °F 49% 29.91 in 10.0 mi NW 16.1 mph 20.7 mph N/A   Scattered Clouds
3:15 PM 44.6 °F 36.9 °F 26.6 °F 49% 29.92 in 10.0 mi NW 18.4 mph - N/A   Clear
3:35 PM 44.6 °F 37.2 °F 24.8 °F 46% 29.93 in 10.0 mi NW 17.3 mph - N/A   Clear
3:55 PM 42.8 °F 34.5 °F 24.8 °F 49% 29.93 in 10.0 mi WNW 18.4 mph - N/A   Clear
4:15 PM 42.8 °F 36.2 °F 26.6 °F 53% 29.94 in 10.0 mi NW 12.7 mph - N/A   Clear
4:35 PM 41.0 °F 33.9 °F 24.8 °F 53% 29.95 in 10.0 mi NW 12.7 mph - N/A   Clear
4:55 PM 39.2 °F 31.6 °F 24.8 °F 56% 29.95 in 10.0 mi NW 12.7 mph - N/A   Clear
5:15 PM 39.2 °F 32.0 °F 23.0 °F 52% 29.96 in 10.0 mi NNW 11.5 mph - N/A   Clear
5:35 PM 37.4 °F 30.8 °F 23.0 °F 56% 29.96 in 10.0 mi North 9.2 mph - N/A   Clear
5:55 PM 35.6 °F 29.2 °F 21.2 °F 56% 29.96 in 10.0 mi NNW 8.1 mph - N/A   Clear
6:15 PM 35.6 °F 28.0 °F 21.2 °F 56% 29.96 in 10.0 mi NNW 10.4 mph - N/A   Clear
6:35 PM 35.6 °F 28.0 °F 21.2 °F 56% 29.97 in 10.0 mi North 10.4 mph - N/A   Clear
7:15 PM 33.8 °F 27.7 °F 19.4 °F 56% 29.99 in 10.0 mi North 6.9 mph - N/A   Mostly Cloudy
7:35 PM 33.8 °F 27.7 °F 19.4 °F 56% 29.99 in 10.0 mi North 6.9 mph - N/A   Mostly Cloudy
7:55 PM 33.8 °F 28.6 °F 19.4 °F 56% 29.99 in 10.0 mi North 5.8 mph - N/A   Partly Cloudy
8:35 PM 30.2 °F 22.6 °F 17.6 °F 60% 30.00 in 10.0 mi NNW 8.1 mph - N/A   Scattered Clouds
8:55 PM 30.2 °F 23.4 °F 19.4 °F 64% 30.00 in 10.0 mi North 6.9 mph - N/A   Overcast
9:15 PM 30.2 °F 25.4 °F 17.6 °F 60% 30.01 in 10.0 mi NNW 4.6 mph - N/A   Overcast
9:35 PM 28.4 °F 22.2 °F 17.6 °F 64% 30.00 in 10.0 mi NW 5.8 mph - N/A   Overcast
9:55 PM 28.4 °F 23.3 °F 17.6 °F 64% 30.01 in 10.0 mi West 4.6 mph - N/A   Overcast
10:15 PM 28.4 °F 23.3 °F 17.6 °F 64% 30.01 in 10.0 mi WNW 4.6 mph - N/A   Overcast
10:35 PM 28.4 °F 24.6 °F 17.6 °F 64% 30.00 in 10.0 mi WNW 3.5 mph - N/A   Overcast
10:55 PM 28.4 °F 24.6 °F 17.6 °F 64% 30.01 in 10.0 mi West 3.5 mph - N/A   Overcast
11:15 PM 28.4 °F 24.6 °F 17.6 °F 64% 30.01 in 10.0 mi WNW 3.5 mph - N/A   Overcast
11:35 PM 28.4 °F 22.2 °F 17.6 °F 64% 30.02 in 10.0 mi WNW 5.8 mph - N/A   Mostly Cloudy
11:55 PM 26.6 °F 20.0 °F 17.6 °F 69% 30.02 in 10.0 mi WNW 5.8 mph - N/A   Clear